Regional Weather Roundup
Issued by NWS Upton, NY

Home | Current Version | Previous Version | Text Only | Print | Product List | Glossary On
Versions: 1 2 3 4 5 6 7 8 9 10 11 12 13 14 15 16 17 18 19 20 21 22 23 24 25 26 27 28 29 30 31 32 33 34 35 36 37 38 39 40 41 42 43 44 45 46 47 48 49 50
000
ASUS41 KOKX 031205
RWROKX

REGIONAL WEATHER ROUNDUP
NATIONAL WEATHER SERVICE NEW YORK NY
700 AM EST TUE MAR 03 2015

NOTE: "FAIR" INDICATES FEW OR NO CLOUDS BELOW 12,000 FEET WITH NO
SIGNIFICANT WEATHER AND/OR OBSTRUCTIONS TO VISIBILITY.

NYZ071-072-176-178-NJZ106-104-031300-
NEW YORK CITY METRO AREA


CITY           SKY/WX    TMP DP  RH WIND       PRES   REMARKS
CENTRAL PARK   CLEAR     24   8  50 NW6       30.45R WCI  17
LAGUARDIA APRT MOCLDY    25  10  53 NW3       30.44R
KENNEDY INTL   MOCLDY    21   9  59 CALM      30.45R
NEWARK/LIBERTY MOCLDY    23   9  55 NW7       30.45R WCI  15
BRNX BOT. GARD   N/A    N/A N/A N/A W6        30.44S
TETERBORO      CLEAR     14   6  70 CALM      30.45R
$$

NYZ177-179-078>081-031300-
LONG ISLAND NEW YORK

CITY           SKY/WX    TMP DP  RH WIND       PRES   REMARKS
FARMINGDALE    PTCLDY    17  10  74 W5        30.44R WCI  10
ISLIP          PTCLDY    11   5  77 CALM      30.41R
SHIRLEY        CLEAR     18   8  65 CALM      30.44R
WESTHAMPTON    CLEAR     10   2  69 NW5       30.44R WCI   2
MONTAUK POINT  NOT AVBL
$$

NYZ052-065-067-031300-
HUDSON VALLEY

CITY           SKY/WX    TMP DP  RH WIND       PRES   REMARKS
WHITE PLAINS   CLEAR     10   5  80 NW5       30.40R WCI   2
NEWBURGH       CLEAR     12   9  85 CALM      30.40R
MONTGOMERY     PTCLDY     2  -1  88 CALM      30.39S
POUGHKEEPSIE   PTCLDY     5  -1  76 CALM      30.43R
ALBANY         MOCLDY    12   3  67 W8        30.41R WCI   0
$$

NJZ001-105-106-008-010-013-015-019>022-104-031300-
NEW JERSEY

CITY           SKY/WX    TMP DP  RH WIND       PRES   REMARKS
NEWARK/LIBERTY MOCLDY    23   9  55 NW7       30.45R WCI  15
TETERBORO      CLEAR     14   6  70 CALM      30.45R
CALDWELL       CLEAR     13   6  74 CALM      30.44R
MORRISTOWN     PTCLDY     7   3  85 CALM      30.44R
SOMERVILLE     PTCLDY    13   5  70 CALM      30.43R
SUSSEX         MIX PCPN   4  -1  80 NW3       30.40R
ANDOVER          N/A      8   4  83 CALM      30.40S
TRENTON        MOCLDY    22   9  57 CALM      30.43S
MILLVILLE      MOCLDY    25  12  58 NE5       30.44R WCI  19
ATLANTIC CITY  MOCLDY    22  12  65 CALM      30.45R
WRIGHTSTOWN    NOT AVBL
TOMS RIVER     PTCLDY    18  14  86 CALM      30.45S
BELMAR         PTCLDY    21   9  58 NW3       30.43S
$$

PAZ047>061-062-071-031300-
EASTERN PENNSYLVANIA

CITY           SKY/WX    TMP DP  RH WIND       PRES   REMARKS
PHILADELPHIA   CLOUDY    26  10  50 N7        30.47R WCI  18
ALLENTOWN      MOCLDY    18   9  68 CALM      30.42R
SCRANTON       PTCLDY    14   5  67 E5        30.36R WCI   6
$$

CTZ002-004>006-009-010-012-RIZ004-006-007-MAZ004-011-015-031300-
SOUTHERN NEW ENGLAND
 IN CT

CITY           SKY/WX    TMP DP  RH WIND       PRES   REMARKS
BRADLEY INTL   PTCLDY    16   5  62 CALM      30.40R
HARTFORD       CLEAR     12   6  77 CALM      30.43R
DANBURY        CLEAR      2  -4  76 CALM      30.41R
WTRBRY/OXFORD  MOCLDY    16   1  53 NW3       30.38R
BRIDGEPORT     CLEAR     14   7  73 NW3       30.43R
MERIDEN        CLEAR      8   4  83 S3        30.43R
NEW HAVEN      PTCLDY    19   9  65 NW5       30.43R WCI  12
CHESTER        FAIR      18   9  68 CALM      30.39R
GROTON         CLEAR     10   5  80 NW6       30.42R WCI   0
WILLIMANTIC    CLEAR      4   0  83 CALM      30.40R

 IN RI

CITY           SKY/WX    TMP DP  RH WIND       PRES   REMARKS
PROVIDENCE     PTCLDY    14   6  70 W3        30.40S
BLOCK ISLAND   CLEAR     23   9  54 NW9       30.38R WCI  13
WESTERLY       CLEAR     11   4  73 CALM      30.42R

 IN MA

CITY           SKY/WX    TMP DP  RH WIND       PRES   REMARKS
BOSTON         PTCLDY    21   4  47 W9        30.39R WCI  11
WORCESTER      CLEAR      9   2  73 W5        30.31S WCI   1
WESTFIELD      CLEAR      8   2  76 CALM      30.40R
PROVINCETOWN   CLEAR     25   5  42 NW15G25   30.37R WCI  12
NANTUCKET      CLEAR     24   6  46 N10       30.38R WCI  14
$$

ANZ330-335-338-340-345-350-353-355-031300-
COASTAL MARINE OBSERVATIONS


STATION/POSITION TIME  SKY/WX   TEMP    WIND        PRES    VSBY  WAVE
                                AIR SEA DIR/SP/G                  HT/PER
                 (UTC)          (F)     (DEG/KT/KT) (MB)    (MI)  (FT/S)
NY HARB ENTRANCE 1200            28 38  350/  4/  8 1030.7          1/ 8
4S FIRE IS       NOT AVBL
20S FIRE ISLAND  1100               36              1030.2          2/ 4
23SW MTP         1200                                 N/A           3/ 4
HUDSON CANYON    NOT AVBL
EXECUTION ROCKS  NOT AVBL
WESTERN LI SOUND NOT AVBL
CENTRAL LI SOUND NOT AVBL
EASTERN LI SOUND NOT AVBL
ROBBINS REEF     1200                   320/  5/  6   N/A
$$


>>>>>>>>>>>>>>>>>>>>>>>>>>>> KEY <<<<<<<<<<<<<<<<<<<<<<<<<<<
>                                                          <
>     SKY/WX - SKY CONDITION/PRESENT WEATHER               <
>     TMP    - TEMPERATURE IN FAHRENHEIT                   <
>     DP     - DEWPOINT IN FAHRENHEIT                      <
>     RH     - RELATIVE HUMIDITY IN PERCENT                <
>     WIND   - DIRECTION AND SPEED IN MPH                  <
>     PRES   - MEAN SEA LEVEL PRESSURE IN INCHES OF HG     <
>     WCI    - WIND CHILL INDEX                            <
>     VSB    - VISIBILITY IN MILES                         <
>     HX     - HEAT INDEX                                  <
>     TC     - TEMPERATURE IN CELSIUS                      <
>     VRB    - VARIABLE WIND DIRECTION                     <
>                                                          <
>>>>>>>>>>>>>>>>>>>>>>>>>>>> KEY <<<<<<<<<<<<<<<<<<<<<<<<<<<





USA.gov is the U.S. government's official web portal to all federal, state and local government web resources and services.